This demonstration page uses our WeatherBlox Daily Observations layout. Learn more.

Left ArrowRight Arrow

Hourly Observations for January 14, 2020

Temp ( °F °C ) Dew Point ( °F °C ) Humidity (%) Winds ( mph kmh ) Pressure ( in mb ) Visibility ( mi km ) Precip ( " mm )
3:53 am 03:53 Clear 21 -6.1 18 -7.8 88 88 WSW 3 6 30.11 1020 10 16 0.00 0.00
4:53 am 04:53 Clear 19 -7.2 14 -10 81 81 WNW 3 6 30.14 1021 10 16 0.00 0.00
5:53 am 05:53 Clear 20 -6.7 15 -9.4 81 81 N 7 11 30.16 1021 10 16 0.00 0.00
6:53 am 06:53 Clear 18 -7.8 14 -10 84 84 NE 5 7 30.19 1022 10 16 0.00 0.00
7:53 am 07:53 Clear 16 -8.9 13 -10.6 88 88 NNE 3 6 30.21 1023 10 16 0.00 0.00
8:53 am 08:53 Sunny 20 -6.7 16 -8.9 85 85 ENE 3 6 30.20 1023 10 16 0.00 0.00
9:53 am 09:53 Sunny 23 -5 18 -7.8 81 81 ENE 10 17 30.18 1022 10 16 0.00 0.00
10:53 am 10:53 Sunny 25 -3.9 19 -7.2 78 78 ENE 9 15 30.19 1022 10 16 0.00 0.00
11:53 am 11:53 Sunny 28 -2.2 21 -6.1 75 75 E 8 13 30.17 1022 10 16 0.00 0.00
12:53 pm 12:53 Sunny 30 -1.1 21 -6.1 69 69 E 9 15 30.12 1020 10 16 0.00 0.00
1:53 pm 13:53 Sunny 32 0 23 -5 69 69 E 9 15 30.07 1018 10 16 0.00 0.00
2:53 pm 14:53 Sunny 33 0.6 23 -5 66 66 E 13 20 30.05 1018 10 16 0.00 0.00
3:53 pm 15:53 Sunny 33 0.6 24 -4.4 70 70 E 10 17 30.04 1017 10 16 0.00 0.00
4:53 pm 16:53 Sunny 30 -1.1 23 -5 75 75 ESE 9 15 30.03 1017 10 16 0.00 0.00
5:12 pm 17:12 Mostly Cloudy 30 -1 23 -5 75 75 ESE 9 15 30.05 1018 10 16 0.00 0.00
5:53 pm 17:53 Cloudy 30 -1.1 24 -4.4 79 79 ESE 8 13 30.01 1016 10 16 0.00 0.00
6:53 pm 18:53 Cloudy 30 -1.1 25 -3.9 82 82 E 12 19 30.02 1017 9 14 0.00 0.00
7:53 pm 19:53 Cloudy 30 -1.1 24 -4.4 79 79 ESE 10 17 30.01 1016 10 16 0.00 0.00
8:53 pm 20:53 Cloudy 29 -1.7 24 -4.4 82 82 ESE 10 17 30.00 1016 10 16 0.00 0.00
9:26 pm 21:26 Cloudy 29 -1.7 25 -3.9 85 85 ESE 9 15 30.02 1017 7 11 0.00 0.00
9:53 pm 21:53 Cloudy with Mist and Fog 29 -1.7 25 -3.9 85 85 E 10 17 29.99 1016 6 10 0.00 0.00
10:44 pm 22:44 Cloudy with Mist and Fog 29 -1.7 26 -3.3 89 89 E 6 9 30.03 1017 4 6 0.00 0.00
10:53 pm 22:53 Cloudy with Mist and Fog 29 -1.7 26 -3.3 89 89 E 6 9 30.00 1016 3 5 0.00 0.00
11:03 pm 23:03 Cloudy with Mist and Fog 29 -1.7 26 -3.3 89 89 E 7 11 30.03 1017 2 3 0.00 0.00
11:12 pm 23:12 Cloudy with Mist and Fog 28 -2 27 -3 93 93 E 7 11 30.03 1017 2 2 0.00 0.00
11:28 pm 23:28 Cloudy with Mist and Fog 29 -1.7 27 -2.8 92 92 E 6 9 30.03 1017 1 1 0.00 0.00
11:53 pm 23:53 Mostly Cloudy with Freezing Fog 29 -1.7 28 -2.2 96 96 NE 6 9 29.98 1015 1 1 0.00 0.00

Powered by AerisWeather